Location: Fort Frances
(48.6170°N, 93.4170°W)
Time: 16:54:38
(UTC-05:00)

ISS - All Passes

Search period start: 26 May 2018 00:00
Search period end: 05 June 2018 00:00
Orbit: 402 x 407 km, 51.6° (Epoch: 26 May)

Date Brightness Start Highest point End Pass type
(mag) Time Alt. Az. Time Alt. Az. Time Alt. Az.
26 May - 00:22:55 10° WNW 00:26:08 56° N 00:29:22 10° E visible
26 May - 01:59:28 10° WNW 02:02:37 46° SSW 02:05:46 10° SE visible
26 May - 20:17:41 10° SSW 20:20:42 35° SE 20:23:43 10° E daylight
26 May - 21:53:49 10° W 21:57:04 64° NNW 22:00:20 10° ENE visible
26 May - 23:30:38 10° WNW 23:33:50 48° N 23:37:02 10° E visible
27 May - 01:07:11 10° WNW 01:10:27 73° SSW 01:13:43 10° ESE visible
27 May - 02:44:31 10° W 02:46:29 15° SW 02:48:28 10° S visible
27 May - 19:26:02 10° SSW 19:28:37 22° SE 19:31:13 10° E daylight
27 May - 21:01:31 10° WSW 21:04:48 86° NNW 21:08:06 10° ENE daylight
27 May - 22:38:19 10° WNW 22:41:30 47° N 22:44:42 10° ENE visible
28 May - 00:14:56 10° WNW 00:18:13 79° NNE 00:21:30 10° ESE visible
28 May - 01:51:44 10° W 01:54:28 24° SW 01:57:11 10° SSE visible
28 May - 18:34:57 10° SSE 18:36:36 13° SE 18:38:16 10° ESE daylight
28 May - 20:09:20 10° SW 20:12:35 65° SSE 20:15:50 10° ENE daylight
28 May - 21:45:57 10° W 21:49:10 50° N 21:52:22 10° ENE visible
28 May - 23:22:41 10° WNW 23:25:56 60° NNE 23:29:10 10° E visible
29 May - 00:59:16 10° WNW 01:02:21 39° SSW 01:05:25 10° SE visible
29 May - 19:17:18 10° SW 19:20:23 41° SSE 19:23:30 10° ENE daylight
29 May - 20:53:35 10° W 20:56:49 59° NNW 21:00:04 10° ENE daylight
29 May - 22:30:23 10° WNW 22:33:36 50° N 22:36:48 10° E visible
30 May - 00:06:55 10° WNW 00:10:10 63° SSW 00:13:24 10° SE visible
30 May - 01:44:37 10° WSW 01:46:07 13° SW 01:47:37 10° SSW visible
30 May - 18:25:29 10° SSW 18:28:16 26° SE 18:31:02 10° E daylight
30 May - 20:01:14 10° WSW 20:04:31 77° NNW 20:07:48 10° ENE daylight
30 May - 21:38:02 10° WNW 21:41:14 47° N 21:44:25 10° ENE visible
30 May - 23:14:38 10° WNW 23:17:55 88° NE 23:21:11 10° ESE visible
31 May - 00:51:33 10° W 00:54:04 21° SW 00:56:36 10° SSE visible
31 May - 17:34:06 10° S 17:36:10 16° SE 17:38:16 10° E daylight
31 May - 19:08:57 10° WSW 19:12:13 76° SSE 19:15:30 10° ENE daylight
31 May - 20:45:39 10° W 20:48:51 48° N 20:52:03 10° ENE daylight
31 May - 22:22:20 10° WNW 22:25:36 65° NNE 22:28:51 10° E visible
31 May - 23:58:58 10° W 00:01:57 33° SW 00:04:56 10° SSE visible
01 Jun - 18:16:48 10° SW 18:19:59 48° SSE 18:23:10 10° ENE daylight
01 Jun - 19:53:14 10° W 19:56:28 55° N 19:59:42 10° ENE daylight
01 Jun - 21:30:01 10° WNW 21:33:14 53° N 21:36:28 10° E daylight
01 Jun - 23:06:33 10° WNW 23:09:46 53° SSW 23:12:57 10° SE visible
02 Jun - 00:45:02 10° WSW 00:45:37 10° SW 00:46:13 10° SW visible
02 Jun - 17:24:52 10° SSW 17:27:47 30° SE 17:30:43 10° E daylight
02 Jun - 19:00:50 10° W 19:04:06 69° NNW 19:07:23 10° ENE daylight
02 Jun - 20:37:39 10° WNW 20:40:50 47° N 20:44:02 10° E daylight
02 Jun - 22:14:12 10° WNW 22:17:29 82° SSW 22:20:46 10° ESE visible
02 Jun - 23:51:18 10° W 23:53:35 18° SW 23:55:50 10° S visible
03 Jun - 16:33:15 10° S 16:35:39 19° SE 16:38:02 10° E daylight
03 Jun - 18:08:28 10° WSW 18:11:45 86° SSE 18:15:03 10° ENE daylight
03 Jun - 19:45:14 10° WNW 19:48:26 47° N 19:51:37 10° ENE daylight
03 Jun - 21:21:52 10° WNW 21:25:09 72° NNE 21:28:26 10° ESE daylight
03 Jun - 22:58:35 10° W 23:01:26 28° SW 23:04:18 10° SSE visible
04 Jun - 15:42:27 10° SSE 15:43:33 11° SE 15:44:40 10° ESE daylight
04 Jun - 17:16:13 10° SW 17:19:27 57° SSE 17:22:41 10° ENE daylight
04 Jun - 18:52:47 10° W 18:55:59 52° N 18:59:13 10° ENE daylight
04 Jun - 20:29:32 10° WNW 20:32:46 56° NNE 20:36:00 10° E daylight
04 Jun - 22:06:04 10° WNW 22:09:14 45° SSW 22:12:22 10° SE visible
